Location: Austin
(30.3000°N, 97.7500°W)
Time: 04:46:20
(UTC-05:00)

Okean 1-7 - Pass Details

Date: 18 March 2023
Orbit: 587 x 612 km, 82.5° (Epoch: 01 April)

Event Time Altitude Azimuth Distance (km) Brightness Sun altitude
Rises 21:01:14 0° 2° (N) 2,878 6.6 -18.0°
Reaches altitude 10° 21:03:34 10° 10° (N) 1,968 5.6 -18.5°
Enters shadow 21:07:27 41° 72° (ENE) 879 3.4 -19.3°
